[[[{"header":{"parameterUnit":"kt","parameterCategory":2,"dx":1,"dy":1,"la1":30.253999710083008,"la2":30.299108505249023,"lo1":-89.0895004272461,"lo2":-89.04439544677734,"nx":28,"ny":28,"refTime":"2022-10-15T21:00:00:Z","depth":0,"parameterNumber":1,"parameterNumberName":"U-component_of_WINDS"},"data":[-2.7822,-2.7913,-2.7895,-2.7993,-2.7994,-2.8059,-2.8077,-2.8099,-2.8113,-2.8193,-2.8236,-2.823,-2.824,-2.8291,-2.834,-2.8337,-2.836,-2.8406,-2.8396,-2.8199,-2.817,-2.8144,-2.8119,-2.8411,-2.8411,-2.8602,-2.8604,-2.8605,-2.7685,-2.7686,-2.7731,-2.7762,-2.7802,-2.7747,-2.7769,-2.7808,-2.7869,-2.7886,-2.7926,-2.7996,-2.805,-2.8043,-2.8093,-2.8141,-2.8119,-2.8156,-2.8153,-2.8156,-2.7945,-2.7919,-2.8173,-2.8173,-2.8173,-2.8173,-2.8173,-2.8173,-2.7432,-2.7487,-2.7494,-2.7542,-2.7553,-2.7576,-2.7627,-2.7615,-2.7661,-2.7707,-2.7677,-2.7747,-2.7763,-2.7814,-2.7827,-2.7884,-2.784,-2.7876,-2.7885,-2.7896,-2.791,-2.7643,-2.7891,-2.7891,-2.789,-2.7889,-2.7889,0,-2.7241,-2.7221,-2.7261,-2.7298,-2.7332,-2.7359,-2.738,-2.7412,-2.7365,-2.7405,-2.7463,-2.7494,-2.7557,-2.7612,-2.7654,-2.766,-2.7609,-2.7601,-2.7626,-2.7642,-2.7653,-2.7651,-2.731,-2.7594,-2.7591,-2.7589,-2.7588,-2.7587,-2.6986,-2.7051,-2.7048,-2.7079,-2.7085,-2.7137,-2.7165,-2.7117,-2.7149,-2.7171,-2.7224,-2.7276,-2.7316,-2.7415,-2.7403,-2.7451,-2.7427,-2.7538,-2.7434,-2.7448,-2.7432,-2.7429,-2.7438,-2.7559,-2.7563,-2.7566,-2.7568,0,-2.6846,-2.6811,-2.6905,-2.6895,-2.6895,-2.6967,-2.696,-2.7014,-2.6995,-2.7069,-2.7083,-2.7056,-2.7115,-2.7084,-2.7145,-2.7128,-2.7256,-2.723,-2.7251,-2.7245,-2.7343,-2.7335,-2.7661,-2.7702,-2.7397,-2.74,-2.7402,0,-2.6616,-2.6703,-2.6647,-2.6703,-2.68,-2.6747,-2.6846,-2.6839,-2.6847,-2.6904,-2.6837,-2.6893,-2.6843,-2.6896,-2.687,-2.6968,-2.6979,-2.6972,-2.6965,-2.6979,-2.698,-2.6998,-2.6985,-2.6941,-2.694,-2.6938,-2.6937,0,-2.64,-2.647,-2.6561,-2.6572,-2.6568,-2.6614,-2.6615,-2.6622,-2.665,-2.6681,-2.6699,-2.674,-2.6763,-2.6798,-2.6764,-2.6695,-2.6882,-2.678,-2.6875,-2.6877,-2.6919,-2.6917,-2.7212,-2.6935,-2.6934,-2.6934,-2.6933,0,-2.6209,-2.6235,-2.6371,-2.6367,-2.6387,-2.6448,-2.6482,-2.6525,-2.6538,-2.6524,-2.6548,-2.65,-2.6579,-2.6481,-2.6592,-2.6512,-2.654,-2.654,-2.6546,-2.6552,-2.6443,-2.6616,-2.6898,-2.6928,-2.6558,-2.6555,-2.6552,0,-2.5973,-2.6098,-2.6052,-2.6182,-2.6236,-2.6155,-2.6222,-2.6233,-2.6219,-2.6265,-2.625,-2.6304,-2.6223,-2.6235,-2.6294,-2.6282,-2.6387,-2.6267,-2.6342,-2.6345,-2.6342,-2.6601,-2.6651,-2.684,-2.6512,-2.6516,-2.6519,0,-2.5785,-2.5774,-2.5801,-2.581,-2.5812,-2.5856,-2.5933,-2.5971,-2.6004,-2.6023,-2.6088,-2.6161,-2.6104,-2.6124,-2.6088,-2.6151,-2.6315,-2.6081,-2.6081,-2.6127,-2.6487,-2.6535,-2.6567,-2.6278,-2.6283,-2.6286,-2.6487,0,-2.5509,-2.5564,-2.5632,-2.5653,-2.568,-2.5758,-2.5717,-2.5753,-2.5713,-2.5695,-2.5789,-2.5788,-2.583,-2.5855,-2.5818,-2.597,-2.594,-2.5878,-2.578,-2.5949,-2.6015,-2.6041,-2.5686,-2.5683,-2.568,-2.5678,0,0,-2.5293,-2.5371,-2.5314,-2.5382,-2.5402,-2.5314,-2.5402,-2.5411,-2.5433,-2.545,-2.5395,-2.5497,-2.5499,-2.5618,-2.5667,-2.5683,-2.5708,-2.5649,-2.5868,-2.589,-2.5909,-2.598,-2.6008,-2.5674,-2.5673,-2.5672,-2.5671,0,-2.5182,-2.5179,-2.5263,-2.5269,-2.5275,-2.525,-2.527,-2.5262,-2.5254,-2.5341,-2.527,-2.5321,-2.5402,-2.5415,-2.5433,-2.5634,-2.5578,-2.5649,-2.5771,-2.5843,-2.5868,-2.589,-2.5965,-2.5992,-2.5665,-2.5665,-2.5665,0,-2.4991,-2.4982,-2.5017,-2.5053,-2.5056,-2.5112,-2.4998,-2.5061,-2.5103,-2.5005,-2.5093,-2.5088,-2.5101,-2.5216,-2.5266,-2.5217,-2.5462,-2.5376,-2.5392,-2.5397,-2.5465,-2.5495,-2.5521,-2.5171,-2.517,-2.5168,0,0,-2.4902,-2.4951,-2.4925,-2.5025,-2.5032,-2.4994,-2.5019,-2.498,-2.499,-2.4994,-2.4985,-2.5,-2.5047,-2.5079,-2.512,-2.5252,-2.5252,-2.5317,-2.534,-2.5359,-2.5375,-2.5448,-2.5478,-2.5162,-2.5162,-2.5162,0,0,-2.4859,-2.4831,-2.4788,-2.4898,-2.4908,-2.4891,-2.4956,-2.4903,-2.4935,-2.4921,-2.4862,-2.4863,-2.4969,-2.4967,-2.4892,-2.5086,-2.4989,-2.5006,-2.5083,-2.5112,-2.5134,-2.5133,-2.4777,0,0,0,0,0,-2.4722,-2.4834,-2.4795,-2.4807,-2.4851,-2.4912,-2.4918,-2.4869,-2.4803,-2.4856,-2.484,-2.4776,-2.4915,-2.4848,-2.4862,-2.4946,-2.5086,-2.51,-2.5112,-2.5242,-2.5273,-2.5298,0,0,0,0,0,0,-2.4727,-2.4741,-2.4792,-2.4779,-2.4789,-2.4908,-2.4784,-2.4774,-2.4796,-2.4782,-2.4781,-2.4776,-2.4738,-2.4837,-2.4851,-2.4931,-2.4772,-2.5091,-2.5103,-2.5113,-2.5252,-2.5277,-2.5299,0,0,0,0,0,-2.473,-2.4741,-2.4824,-2.4777,-2.4786,-2.4748,-2.4779,-2.477,-2.4786,-2.476,-2.4753,-2.4747,-2.4741,-2.475,-2.4845,-2.4926,-2.4762,-2.4767,-2.5099,-2.5108,-2.5116,-2.5265,0,0,0,0,0,0,-2.4732,-2.4734,-2.4825,-2.4825,-2.473,-2.474,-2.474,-2.4767,-2.4761,-2.4755,-2.4723,-2.4712,-2.4745,-2.4751,-2.4758,-2.4927,-2.4754,-2.4759,-2.4763,-2.5106,-2.5113,-2.5119,0,0,0,0,0,0,-2.4728,-2.4736,-2.4825,-2.4768,-2.4761,-2.4734,-2.4733,-2.4807,-2.4763,-2.4724,-2.4715,-2.4718,-2.4736,-2.4753,-2.4758,-2.4874,-2.4748,-2.4753,-2.4756,-2.4759,-2.5111,-2.5117,0,0,0,0,0,0,-2.473,-2.4737,-2.4767,-2.4763,-2.4757,-2.4763,-2.4798,-2.4847,-2.4711,-2.4726,-2.4697,-2.4691,-2.474,-2.4743,-2.4758,-2.4873,-2.4874,-2.4748,-2.4751,-2.4754,-2.4756,0,0,0,0,0,0,0,-2.4732,-2.4697,-2.4819,-2.4758,-2.4753,-2.4834,-2.4834,-2.4834,-2.4709,-2.4704,-2.4699,-2.4694,-2.4718,-2.4724,-2.4729,-2.4872,0,0,-2.4747,-2.475,0,0,0,0,0,0,0,0,-2.4693,-2.4696,-2.4819,-2.4819,-2.482,-2.4834,-2.4834,-2.4834,-2.4708,-2.4704,-2.47,-2.4696,-2.4719,-2.4724,-2.4729,0,0,0,0,0,0,0,0,0,0,0,0,0,0,0,-2.4819,-2.4819,0,-2.4834,-2.4834,-2.4834,-2.4708,-2.4704,-2.4701,-2.4697,-2.4721,-2.4724,-2.4728,0,0,0,0,0,0,0,0,0,0,0,0,0,0,0,0,0,0,0,0,0,0,0,0,0,0,0,0,0,0,0,0,0,0,0,0,0,0,0,0,0,0,0,0,0,0,0,0,0,0,0,0,0,0,0,0,0,0,0,0,0,0,0,0,0,0,0,0,0]}],[{"header":{"parameterUnit":"kt","parameterCategory":2,"dx":1,"dy":1,"la1":30.253999710083008,"la2":30.299108505249023,"lo1":-89.0895004272461,"lo2":-89.04439544677734,"nx":28,"ny":28,"refTime":"2022-10-15T21:00:00:Z","depth":0,"parameterNumber":2,"parameterNumberName":"V-component_of_WINDS"},"data":[2.8567,2.854,2.8553,2.8527,2.8534,2.8517,2.8515,2.8514,2.8515,2.8496,2.8487,2.8495,2.85,2.849,2.848,2.8483,2.8477,2.8459,2.8466,2.8536,2.8547,2.8556,2.8564,2.8458,2.8458,2.839,2.839,2.8389,2.8622,2.8629,2.8619,2.8617,2.8608,2.8634,2.8634,2.8624,2.8608,2.8609,2.8601,2.8584,2.8571,2.8581,2.857,2.8556,2.8566,2.8552,2.8552,2.8552,2.8629,2.8637,2.8545,2.8545,2.8545,2.8545,2.8545,2.8545,2.8723,2.8706,2.8713,2.8701,2.8704,2.8702,2.8687,2.8698,2.8687,2.8678,2.8694,2.8675,2.8676,2.8668,2.8667,2.8651,2.8668,2.8655,2.8652,2.8648,2.8642,2.8738,2.865,2.865,2.8651,2.8651,2.8651,0,2.8801,2.8813,2.8803,2.8798,2.879,2.8786,2.8784,2.8775,2.8801,2.879,2.8775,2.8768,2.8753,2.8739,2.873,2.8731,2.8752,2.8756,2.8747,2.8738,2.8733,2.8735,2.8858,2.8757,2.8758,2.8759,2.8759,2.876,2.8903,2.8881,2.8893,2.8885,2.8887,2.8872,2.8866,2.889,2.8882,2.8882,2.8864,2.8851,2.8841,2.8812,2.8821,2.8809,2.8818,2.8779,2.8816,2.8811,2.8816,2.8817,2.8814,2.877,2.8769,2.8768,2.8767,0,2.8959,2.8979,2.8948,2.8961,2.8964,2.8939,2.8949,2.8932,2.8943,2.892,2.8916,2.8933,2.8916,2.8932,2.8915,2.8923,2.888,2.8891,2.8881,2.8883,2.8848,2.8851,2.8735,2.8721,2.8832,2.8831,2.883,0,2.9053,2.9022,2.9053,2.9034,2.9002,2.9027,2.8993,2.9,2.9002,2.8984,2.9012,2.8994,2.9017,2.9001,2.9013,2.8981,2.8978,2.8982,2.8985,2.8978,2.8977,2.897,2.8975,2.8994,2.8995,2.8995,2.8996,0,2.9137,2.9118,2.9088,2.9086,2.9095,2.908,2.9082,2.9084,2.9076,2.9069,2.9064,2.9053,2.9046,2.9036,2.9051,2.9076,2.9013,2.905,2.9016,2.9016,2.8999,2.8999,2.8896,2.8996,2.8997,2.8997,2.8997,0,2.9214,2.9209,2.9162,2.9171,2.9164,2.9143,2.9135,2.9121,2.912,2.9127,2.9121,2.914,2.9114,2.915,2.9113,2.9141,2.9133,2.9134,2.9132,2.9128,2.9167,2.9104,2.9006,2.8995,2.9128,2.913,2.9131,0,2.9305,2.9263,2.9285,2.9239,2.9221,2.9255,2.9232,2.9231,2.9238,2.9223,2.923,2.9212,2.9242,2.9238,2.9218,2.9224,2.9187,2.9229,2.9203,2.9202,2.9202,2.9112,2.9092,2.9026,2.9145,2.9143,2.9142,0,2.9378,2.939,2.938,2.9379,2.9382,2.9366,2.934,2.9328,2.9317,2.9311,2.9289,2.9263,2.9285,2.9277,2.929,2.9269,2.9213,2.9294,2.9294,2.9278,2.9153,2.9135,2.9124,2.9226,2.9225,2.9223,2.9153,0,2.9489,2.947,2.9445,2.944,2.9431,2.9402,2.942,2.9408,2.9423,2.9431,2.9398,2.9398,2.9382,2.9374,2.9386,2.9333,2.9343,2.9365,2.9399,2.934,2.9317,2.9308,2.9432,2.9433,2.9434,2.9435,0,0,2.957,2.9543,2.9566,2.9541,2.9535,2.9569,2.9537,2.9534,2.9526,2.952,2.954,2.9502,2.95,2.9457,2.944,2.9434,2.9425,2.9444,2.9368,2.9361,2.9354,2.9329,2.932,2.9436,2.9436,2.9437,2.9437,0,2.9614,2.9616,2.9585,2.9584,2.9582,2.9592,2.9585,2.9588,2.9591,2.9559,2.9585,2.9566,2.9534,2.9529,2.9522,2.9451,2.9469,2.9445,2.9402,2.9377,2.9368,2.9361,2.9335,2.9325,2.9439,2.9439,2.9439,0,2.9687,2.9692,2.9678,2.9666,2.9664,2.9644,2.9685,2.9662,2.9646,2.968,2.9647,2.9648,2.9642,2.9599,2.958,2.9597,2.9508,2.9538,2.9533,2.953,2.9507,2.9496,2.9487,2.9609,2.9609,2.961,0,0,2.9722,2.9704,2.9715,2.9676,2.9674,2.9688,2.9678,2.9692,2.9687,2.9685,2.9686,2.9679,2.9661,2.9648,2.9631,2.9582,2.9582,2.9559,2.9551,2.9544,2.9538,2.9512,2.9502,2.9612,2.9612,2.9612,0,0,2.9738,2.9749,2.9766,2.9724,2.972,2.9725,2.97,2.9719,2.9706,2.9711,2.973,2.9728,2.9689,2.9688,2.9714,2.9643,2.9676,2.967,2.9644,2.9634,2.9627,2.9627,2.9752,0,0,0,0,0,2.9791,2.9749,2.9763,2.9759,2.9741,2.9718,2.9715,2.9731,2.9755,2.9735,2.974,2.976,2.9706,2.973,2.9724,2.9693,2.9638,2.9633,2.9629,2.9585,2.9574,2.9565,0,0,0,0,0,0,2.9789,2.9784,2.9765,2.9768,2.9764,2.9719,2.9763,2.9767,2.9758,2.9763,2.9759,2.976,2.9772,2.9734,2.9728,2.9699,2.9754,2.9636,2.9632,2.9629,2.9581,2.9572,2.9565,0,0,0,0,0,2.9788,2.9784,2.9751,2.9769,2.9765,2.9777,2.9765,2.9768,2.9761,2.9767,2.9769,2.9774,2.977,2.9767,2.973,2.9701,2.9758,2.9756,2.9633,2.963,2.9628,2.9577,0,0,0,0,0,0,2.9787,2.9785,2.975,2.975,2.9786,2.978,2.978,2.9769,2.9767,2.9769,2.9784,2.9787,2.9769,2.9766,2.9763,2.9701,2.9762,2.9759,2.9758,2.9631,2.9629,2.9626,0,0,0,0,0,0,2.9788,2.9785,2.975,2.9771,2.9773,2.9782,2.9782,2.9753,2.9766,2.9783,2.9787,2.9785,2.9773,2.9766,2.9764,2.9717,2.9764,2.9762,2.9761,2.976,2.9629,2.9627,0,0,0,0,0,0,2.9787,2.9784,2.9771,2.9773,2.9775,2.977,2.9756,2.9736,2.9787,2.9783,2.9792,2.9794,2.9772,2.977,2.9764,2.9718,2.9717,2.9764,2.9763,2.9762,2.9761,0,0,0,0,0,0,0,2.9786,2.9801,2.9754,2.9774,2.9776,2.9745,2.9745,2.9745,2.9788,2.9789,2.9791,2.9793,2.9777,2.9774,2.9772,2.9719,0,0,2.9764,2.9763,0,0,0,0,0,0,0,0,2.9802,2.9801,2.9754,2.9754,2.9754,2.9745,2.9745,2.9745,2.9788,2.9789,2.9791,2.9792,2.9776,2.9774,2.9772,0,0,0,0,0,0,0,0,0,0,0,0,0,0,0,2.9754,2.9754,0,2.9745,2.9745,2.9745,2.9788,2.9789,2.9791,2.9792,2.9775,2.9774,2.9772,0,0,0,0,0,0,0,0,0,0,0,0,0,0,0,0,0,0,0,0,0,0,0,0,0,0,0,0,0,0,0,0,0,0,0,0,0,0,0,0,0,0,0,0,0,0,0,0,0,0,0,0,0,0,0,0,0,0,0,0,0,0,0,0,0,0,0,0,0]}]]]